FW7631 Weather Reports


time (UTC)temp
C
wind
direction
speed
KPH
gust
KPH
rain 1hr
cm
rain 24hr
cm
rain mn
cm
humidity
%
barometer
mb
20260510171515 16 203 4.8 14.5 0.00 0.79 0.03 74 1018.4
20260510170515 16 248 4.8 11.3 0.00 0.84 0.03 74 1018.5
20260510165537 16 225 6.4 11.3 0.00 0.86 0.03 73 1018.6
20260510164517 16 248 8.0 16.1 0.00 0.91 0.03 73 1019.0
20260510163517 16 315 4.8 12.9 0.00 0.97 0.03 73 1018.8
20260510162517 15 225 8.0 19.3 0.00 1.02 0.03 74 1018.8
20260510161517 15 225 6.4 11.3 0.00 1.04 0.03 77 1018.5
20260510160517 15 225 4.8 14.5 0.00 1.09 0.03 74 1018.4
20260510155517 15 293 4.8 20.9 0.00 1.12 0.03 73 1018.4
20260510154517 16 225 6.4 14.5 0.00 1.17 0.03 73 1018.4
20260510153517 16 203 6.4 14.5 0.00 1.22 0.03 76 1018.2
20260510152517 15 203 6.4 14.5 0.00 1.27 0.03 76 1018.3
20260510151517 15 248 6.4 14.5 0.00 1.32 0.03 79 1018.0
20260510150517 15 248 3.2 9.7 0.00 1.35 0.03 84 1018.0
20260510145517 15 225 3.2 11.3 0.00 1.40 0.03 82 1017.8
20260510144516 15 158 3.2 9.7 0.00 1.42 0.03 87 1017.7
20260510143517 13 225 1.6 4.8 0.00 1.45 0.03 89 1017.6
20260510142517 13 248 1.6 8.0 0.00 1.45 0.03 91 1017.8
20260510141517 12 225 1.6 4.8 0.00 1.47 0.03 93 1017.7
20260510140517 12 203 1.6 6.4 0.00 1.50 0.03 95 1017.7
20260510135517 11 203 1.6 4.8 0.00 1.52 0.03 97 1017.4
20260510134517 11 203 1.6 4.8 0.00 1.52 0.03 98 1017.4
20260510133517 10 0.0 3.2 0.00 1.55 0.03 99 1017.4
20260510132517 10 0.0 3.2 0.00 1.57 0.03 99 1017.5
20260510131516 10 158 1.6 4.8 0.00 1.60 0.03 99 1017.3
20260510130537 10 0.0 1.6 0.00 1.63 0.03 99 1017.4
20260510125516 10 0.0 1.6 0.00 1.63 0.03 99 1017.6
20260510124516 10 0.0 3.2 0.00 1.63 0.03 99 1017.3
20260510123537 9 0.0 3.2 0.00 1.65 0.03 99 1017.3
20260510122517 9 0.0 3.2 0.00 1.65 0.03 99 1017.2
20260510121517 8 248 1.6 4.8 0.00 1.65 0.03 99 1017.2
20260510120516 8 0.0 1.6 0.00 1.65 0.03 99 1017.3
20260510115537 8 0.0 1.6 0.00 1.65 0.03 99 1017.2
20260510114516 8 0.0 1.6 0.00 1.65 0.03 99 1017.1
20260510113536 8 0.0 6.4 0.00 1.65 0.03 99 1017.1
20260510112516 8 0.0 0.0 0.00 1.65 0.03 99 1017.2
20260510111516 8 0.0 0.0 0.00 1.65 0.03 99 1017.3
20260510110516 8 0.0 1.6 0.00 1.65 0.03 99 1017.1
20260510105516 8 0.0 0.0 0.00 1.65 0.03 99 1016.7
20260510104516 8 0.0 4.8 0.00 1.65 0.03 99 1016.5
20260510103516 8 0.0 1.6 0.00 1.65 0.03 99 1016.3
20260510102516 7 0.0 1.6 0.00 1.65 0.03 99 1016.1
20260510101516 7 0.0 3.2 0.03 1.65 0.03 99 1016.1
20260510100556 7 0.0 1.6 0.03 1.65 0.03 99 1015.8
20260510095516 7 0.0 3.2 0.03 1.65 0.03 99 1015.6
20260510094516 7 0.0 0.0 0.03 1.65 0.03 99 1015.7
20260510093516 7 0.0 0.0 0.03 1.65 0.03 99 1015.5
20260510092516 7 0.0 0.0 0.03 1.65 0.03 99 1015.4
20260510091516 7 0.0 0.0 0.00 1.63 0.00 99 1015.7
20260510090516 7 0.0 0.0 0.00 1.63 0.00 99 1015.2
20260510085516 7 0.0 0.0 0.00 1.63 0.00 99 1015.3
20260510084516 8 0.0 0.0 0.00 1.63 0.00 99 1015.3
20260510083516 8 0.0 0.0 0.00 1.63 0.00 99 1015.7
20260510082516 8 0.0 0.0 0.00 1.63 0.00 99 1016.0
20260510081556 7 0.0 0.0 0.00 1.63 0.00 99 1015.9
20260510080516 7 0.0 0.0 0.00 1.63 0.00 99 1016.1
20260510075516 7 0.0 0.0 0.00 1.63 0.00 99 1016.0
20260510074516 7 0.0 4.8 0.00 1.63 0.00 99 1015.9
20260510073516 7 180 1.6 4.8 0.00 1.63 0.00 99 1015.9
20260510072516 7 0.0 1.6 0.00 1.63 0.00 99 1015.8
20260510071515 7 0.0 0.0 0.00 1.63 0.00 99 1015.8
20260510070516 7 0.0 0.0 0.00 1.63 0.00 99 1015.6
20260510065516 7 0.0 0.0 0.00 1.63 0.00 99 1015.5
20260510064516 7 0.0 1.6 0.00 1.63 0.00 99 1015.4
20260510063556 8 0.0 3.2 0.00 1.63 0.00 99 1015.7
20260510062516 8 0.0 0.0 0.00 1.63 0.00 99 1015.7
20260510061516 8 0.0 1.6 0.00 1.63 0.00 99 1015.9
20260510060516 8 0.0 0.0 0.00 1.63 0.00 99 1016.0
20260510055516 8 0.0 3.2 0.00 1.63 0.00 99 1015.8
20260510054516 8 0.0 3.2 0.00 1.63 0.00 99 1016.0
20260510053536 8 0.0 3.2 0.00 1.63 0.00 99 1016.0
20260510052516 7 0.0 3.2 0.00 1.63 0.00 99 1016.0
20260510051536 7 0.0 3.2 0.00 1.63 0.00 99 1016.0
20260510050515 7 0.0 0.0 0.00 1.63 0.00 99 1016.0
20260510045536 7 0.0 0.0 0.00 1.63 0.00 99 1016.3
20260510044516 7 0.0 0.0 0.00 1.63 0.00 99 1016.1
20260510043515 7 0.0 0.0 0.00 1.63 0.00 99 1016.2
20260510042516 7 0.0 0.0 0.00 1.63 0.00 99 1016.3
20260510041515 7 0.0 0.0 0.00 1.63 0.00 99 1016.3
20260510040535 7 0.0 0.0 0.00 1.63 0.00 99 1016.3
20260510035516 7 0.0 0.0 0.00 1.63 1.63 99 1016.4
20260510034516 7 0.0 0.0 0.00 1.63 1.63 99 1016.3
20260510033516 7 0.0 1.6 0.00 1.63 1.63 99 1016.3
20260510032516 7 248 1.6 6.4 0.00 1.63 1.63 99 1016.4
20260510031516 7 270 3.2 9.7 0.00 1.63 1.63 99 1016.3
20260510030516 7 248 3.2 11.3 0.00 1.63 1.63 99 1016.2
20260510025516 7 248 1.6 4.8 0.00 1.63 1.63 99 1016.3
20260510024516 7 270 3.2 8.0 0.00 1.63 1.63 99 1016.2
20260510023516 7 293 1.6 4.8 0.00 1.63 1.63 99 1016.3
20260510022516 7 270 1.6 4.8 0.00 1.63 1.63 99 1016.4
20260510021536 7 180 1.6 6.4 0.00 1.63 1.63 98 1016.5
20260510020516 7 270 1.6 4.8 0.00 1.63 1.63 98 1016.6
20260510015516 7 315 1.6 6.4 0.00 1.63 1.63 98 1016.7
20260510014516 7 0.0 3.2 0.00 1.63 1.63 98 1016.5
20260510013516 7 0.0 3.2 0.00 1.63 1.63 98 1016.5
20260510012516 7 0.0 0.0 0.00 1.63 1.63 98 1016.6
20260510011516 7 0.0 0.0 0.00 1.63 1.63 98 1016.6
20260510010516 7 0.0 0.0 0.00 1.63 1.63 98 1016.6
20260510005516 7 0.0 0.0 0.00 1.63 1.63 98 1016.5
20260510004515 7 0.0 0.0 0.00 1.63 1.63 98 1016.4
20260510003515 7 0.0 0.0 0.00 1.63 1.63 98 1016.3
20260510002636 7 0.0 0.0 0.00 1.63 1.63 98 1016.2
20260510001516 7 0.0 0.0 0.00 1.63 1.63 98 1016.2
20260510000516 7 0.0 0.0 0.00 1.63 1.63 98 1016.1
20260509235516 7 0.0 1.6 0.00 1.63 1.63 98 1016.1
20260509234515 7 0.0 0.0 0.00 1.63 1.63 98 1016.0
20260509233516 7 0.0 1.6 0.00 1.63 1.63 98 1015.8
20260509232516 7 0.0 1.6 0.00 1.63 1.63 98 1015.8
20260509231516 7 0.0 0.0 0.00 1.63 1.63 98 1015.8
20260509230516 7 0.0 1.6 0.00 1.63 1.63 98 1015.8
20260509225515 7 0.0 1.6 0.00 1.63 1.63 98 1015.7
20260509224516 7 0.0 1.6 0.00 1.63 1.63 98 1015.7
20260509223515 7 0.0 3.2 0.00 1.63 1.63 98 1015.6
20260509222515 7 0.0 1.6 0.00 1.63 1.63 98 1015.6
20260509221515 7 0.0 3.2 0.00 1.63 1.63 98 1015.6
20260509220515 7 0.0 8.0 0.00 1.63 1.63 98 1015.6
20260509215515 7 0.0 1.6 0.00 1.63 1.63 98 1015.7
20260509214535 7 0.0 4.8 0.03 1.63 1.63 98 1015.6
20260509213515 7 0.0 1.6 0.03 1.63 1.63 98 1015.6
20260509212515 7 158 1.6 4.8 0.03 1.63 1.63 98 1015.6
20260509211515 6 0.0 3.2 0.05 1.63 1.63 97 1015.7
20260509210515 6 180 1.6 4.8 0.08 1.63 1.63 97 1015.8
20260509205515 6 180 1.6 6.4 0.10 1.63 1.63 97 1015.9
20260509204535 6 180 1.6 4.8 0.10 1.60 1.60 98 1016.1
20260509203515 6 180 1.6 3.2 0.10 1.60 1.60 97 1016.2
20260509202515 6 0.0 1.6 0.13 1.60 1.60 97 1016.0
20260509201535 6 203 1.6 4.8 0.13 1.57 1.57 97 1016.1
20260509200515 6 0.0 3.2 0.13 1.55 1.55 97 1016.1
20260509195515 6 248 1.6 4.8 0.15 1.52 1.52 97 1016.1
20260509194515 6 203 1.6 9.7 0.18 1.50 1.50 97 1016.0
20260509193515 6 180 1.6 4.8 0.23 1.50 1.50 97 1016.0
20260509192515 6 180 1.6 4.8 0.25 1.47 1.47 97 1016.2
20260509191517 6 0.0 3.2 0.30 1.45 1.45 97 1016.5
20260509190517 6 180 1.6 4.8 0.33 1.42 1.42 97 1016.7
20260509185517 6 203 1.6 4.8 0.33 1.37 1.37 97 1016.7
20260509184517 6 0.0 3.2 0.33 1.32 1.32 97 1016.8
20260509183517 6 203 1.6 4.8 0.33 1.27 1.27 97 1016.8
20260509182517 5 225 1.6 4.8 0.30 1.22 1.22 97 1016.8
20260509181517 5 225 1.6 3.2 0.28 1.14 1.14 97 1017.0
20260509180517 5 225 1.6 3.2 0.28 1.09 1.09 97 1017.0
20260509175517 5 0.0 3.2 0.25 1.04 1.04 97 1017.0
20260509174517 6 248 1.6 3.2 0.25 0.99 0.99 97 1017.1
20260509173517 6 248 1.6 4.8 0.25 0.94 0.94 97 1017.0
20260509172517 6 270 3.2 4.8 0.28 0.91 0.91 97 1017.1